Location: Horowhenua
(40.7500°S, 175.3333°E)
Time: 12:45:18
(UTC+00:00)

IRS-P3 - Pass Details

Date: 28 January 2023
Orbit: 812 x 819 km, 99.0° (Epoch: 28 March)

Event Time Altitude Azimuth Distance (km) Brightness Sun altitude
Exits shadow 15:35:30 - 11° (NNE) 2,580 6.4 -17.3°
Reaches altitude 10° 15:35:56 10° 11° (N) 2,405 6.3 -17.2°
Maximum altitude 15:41:16 80° 284° (WNW) 840 4.1 -16.5°
Drops below altitude 10° 15:46:41 10° 196° (SSW) 2,434 6.9 -15.7°
Sets 15:49:03 0° 195° (SSW) 3,374 7.7 -15.4°
